Location: Melizzano
(41.1500°N, 14.5000°E)
Time: 13:26:49
(UTC+00:00)

Cosmos 2369 Rocket - Pass Details

Date: 11 May 2021
Orbit: 827 x 854 km, 71.0° (Epoch: 19 June)

Event Time Altitude Azimuth Distance (km) Brightness Sun altitude
Exits shadow 22:17:23 60° 41° (NE) 954 2.5 -30.0°
Drops below altitude 10° 22:21:59 10° 26° (NNE) 2,460 5.2 -30.1°
Sets 22:24:27 0° 25° (NNE) 3,403 6.1 -30.2°
